Location: Asheville, NC
(35.6000°N, 82.5500°W)
Time: 00:12:15
(UTC-04:00)

CUTE 1.7 + AOD 2 - Pass Details

Date: 16 March 2018
Orbit: 594 x 613 km, 97.5° (Epoch: 22 June)

Event Time Altitude Azimuth Distance (km) Brightness Sun altitude
Rises 19:55:28 0° 179° (S) 2,815 ? -4.2°
Reaches altitude 10° 19:57:40 10° 185° (S) 1,919 ? -4.7°
Maximum altitude 20:01:43 49° 261° (W) 774 ? -5.5°
Drops below altitude 10° 20:05:48 10° 336° (NNW) 1,941 ? -6.3°
Sets 20:08:02 0° 342° (NNW) 2,850 ? -6.8°
